[ hide orbit diagram ]
For accurate long-term ephemerides, please instead use our Horizons system.This orbit viewer was implemented using two-body methods, and hence should not be used for determining accurate long-term trajectories (over several years or decades) or planetary encounter circumstances.
Orbital Elements at Epoch 2459000.5 (2020-May-31.0) TDB
Reference: JPL 27 (heliocentric ecliptic J2000)
Element | Value | Uncertainty (1-sigma) | Units |
e | .09019990448691739 | 4.8372e-08 | |
a | 2.280828823255527 | 7.7939e-09 | au |
q | 2.07509828124687 | 1.117e-07 | au |
i | 2.952825336707146 | 3.3592e-06 | deg |
node | 115.6397942010455 | 0.00010079 | deg |
peri | 50.86102400688099 | 0.0001029 | deg |
M | 303.453208813831 | 2.2244e-05 | deg |
tp | 2459198.125476649241 (2020-Dec-14.62547665) | 7.8016e-05 | TDB |
period | 1258.164612020081 3.44 | 6.449e-06 1.766e-08 | d yr |
n | .2861310805920635 | 1.4666e-09 | deg/d |
Q | 2.486559365264184 | 8.4969e-09 | au |
|
| | Orbit Determination Parameters
Additional Information
|
[ show covariance matrix ]
Physical Parameter Table
Parameter |
Symbol |
Value |
Units |
Sigma |
Reference |
Notes |
absolute magnitude |
H |
15.3 |
|
n/a |
MPO452369 |
|
diameter |
diameter |
1.981 |
km |
0.321 |
urn:nasa:pds:neowise_diameters_albedos::2.0[mainbelt] (http://adsabs.harvard.edu/abs/2011ApJ...741...68M) |
|
geometric albedo |
albedo |
0.411 |
|
0.109 |
urn:nasa:pds:neowise_diameters_albedos::2.0[mainbelt] (http://adsabs.harvard.edu/abs/2011ApJ...741...68M) |
|
|
14088 Ancus | Discovered 1997 May 3 by V. S. Casulli at Colleverde di Guidonia. |
Ancus Marcius, fourth king of Rome, reigned from 640 to 616 B.C. He transferred to Rome the neighboring populations, thereby beginning the long battle between Patricii and Plebeii. |
NOTE: some special characters may not display properly (any characters within {} are an attempt to place the proper accent above a character) |
Reference: 20020624/MPCPages.arc | Last Updated: 2003-10-02 |
|
[ show close-approach data ]
|